COSMOS 1275 DEB

Satellite information

Favourite Embed

Satellite Type and Status

DEBRISIN ORBIT

Key statistics

Satellite COSMOS 1275 DEB at a glance.

Uptime

16165

Days in orbit

Revolutions

≈ 14.5

Per day

Orbit

LEO

Low Earth Orbit

Inclination

82.9

Latest

Satellite identification and parameters

Extended collection of information and parameters for COSMOS 1275 DEB.

Object identification

Identified? True

Debris? True

Object name: COSMOS 1275 DEB

International designator: 1981-053UL

Object number (NORAD): 42220

Object ID (CCSDS): 42220

Country: COMMONWEALTH OF INDEPENDENT STATES (CIS)

Current information (Y/N): Y

RCS size: SMALL

Orbital parameters

Period: 99.112 minutes

Inclination: 82.9095 deg

SMA: 7094.345 km

Apoapsis: 733.846 km

Periapsis: 698.573 km

RAAN: 174.9549 deg

Eccentricy: 0.00248604

Argument of periapsis: 89.2766 deg

Mean anomaly: 271.1281 deg

Mean motion: 14.52895405 rev/day

Mean motion (dot): 0.00013691 rev/day2

B* drag term: 0.0033044813 1/REarth

Two-line elements (TLE)

Creation date: Sept. 6, 2025, 2:09 a.m.

Reference frame: TEME

Reference center: EARTH

Epoch: Sept. 5, 2025, 6:27 p.m. UTC

TLE line 0: 0 COSMOS 1275 DEB

TLE line 1: 1 42220U 81053UL 25248.76888157 .00013691 00000-0 33045-2 0 9995

TLE line 2: 2 42220 82.9095 174.9549 0024860 89.2766 271.1281 14.52895405614479

Live tracking on map

Real-time ground track for satellite COSMOS 1275 DEB.

In-orbit conjunctions

A list of the most updated potential collisions computed for object COSMOS 1275 DEB.

Target Orbit TCA Probability of collision Miss distance Type
COSMOS 332 LEO 2024-12-21 19:11:49 0.000132782 284.0 (m) PAYLOAD
ORBCOMM FM 3 SSO 2024-10-10 10:16:34 0.0001165853 306.0 (m) PAYLOAD

Associated space launch

Navigation satellite providing location information for the Tsiklon-B navigation system

COSMOS 1275 DEB was lifted into orbit during the mission ‘Kosmos-3M | Parus 27’, on board a Kosmos-3M space rocket.

The launch took place on June 4, 1981, 3:41 p.m. from 132/2.

For more information about the launch, click the button.

Launch to space Kosmos-3M | Parus 27
Kosmos-3M | Parus 27

Agency: N/A

Status: Launch Successful

Launch date: June 4, 1981, 3:41 p.m. UTC

Rocket: Kosmos-3M

Launch pad: 132/2

Location: Plesetsk Cosmodrome, Russian Federation

...

Latest news about this satellite

There are no fresh news available about this satellite. Check back as we update our databases every day.


Newsletter sign-up

Weekly statistics, charts and insights to help you stay on top of the space industry.